Regional Weather Roundup
Issued by NWS Cleveland, OH

Home | Current Version | Previous Version | Graphics & Text | Print | Product List | Glossary On
Versions: 1 2 3 4 5 6 7 8 9 10 11 12 13 14 15 16 17 18 19 20 21 22 23 24 25 26 27 28 29 30 31 32 33 34 35 36 37 38 39 40 41 42 43 44 45 46 47 48 49 50
000
ASUS41 KCLE 290400
RWRCLE
OHIO REGIONAL WEATHER ROUNDUP
NATIONAL WEATHER SERVICE WILMINGTON, OH
1200 AM EDT SAT AUG 29 2015

NOTE: "FAIR" INDICATES FEW OR NO CLOUDS BELOW 12,000 FEET WITH NO
SIGNIFICANT WEATHER AND/OR OBSTRUCTIONS TO VISIBILITY.

OHZ001>008-015>018-024>027-034-035-043-044-290500-
   NORTHWEST OHIO

CITY           SKY/WX    TMP DP  RH WIND       PRES   REMARKS
DEFIANCE       CLOUDY    65  59  81 SE3       30.14S
FINDLAY        CLEAR     65  59  81 E7        30.14S
TOLEDO EXPRESS MOCLDY    63  59  87 SE3       30.14S
TOLEDO EXEC    PTCLDY    63  57  81 SE6       30.15F
LIMA           PTCLDY    62  57  83 SE6       30.15S
$$

OHZ009>014-019>023-028>033-038-089-290500-
   NORTHEAST OHIO

CITY           SKY/WX    TMP DP  RH WIND       PRES   REMARKS
CLE-HOPKINS    MOCLDY    64  56  75 SE5       30.18F
CLE-LAKEFRONT  PTCLDY    67  56  67 SE3       30.15F
CUY CO. ARPT   NOT AVBL
LORAIN-ELYRIA  PTCLDY    58  56  93 CALM      30.17S
ASHTABULA      PTCLDY    57  56  96 CALM      30.19F
AKRON-CANTON   MOCLDY    62  56  80 E6        30.18S
WOOSTER        NOT AVBL
MANSFIELD      PTCLDY    61  57  87 SE3       30.18S
YOUNGSTOWN     MOCLDY    58  56  93 E7        30.17F
$$

OHZ042-051>053-060>062-070>072-077>081-290500-
  SOUTHWEST OHIO

CITY           SKY/WX    TMP DP  RH WIND       PRES   REMARKS
CINC-COVINGTON NOT AVBL
CINC-LUNKEN    CLEAR     62  60  93 CALM      30.15R
HAMILTON       CLEAR     61  58  90 E3        30.15R
DAYTON         NOT AVBL
WRIGHT-PAT AFB PTCLDY    64  58  80 E1        30.15R
DAYTON GENERAL CLEAR     66  57  72 SE7       30.14S
WILMINGTON     CLEAR     62  57  83 E5        30.16R
$$

OHZ036-037-039>041-045>050-054>059-063>069-073>076-082>088-290500-
  CENTRAL AND SOUTHEAST OHIO

CITY           SKY/WX    TMP DP  RH WIND       PRES   REMARKS
COLUMBUS       PTCLDY    62  58  86 E3        30.15S
OSU AIRPORT    CLEAR     64  57  78 E3        30.16S
BOLTON FIELD   NOT AVBL
RICKENBACK AFB CLEAR     60  57  91 E3        30.15F
NEWARK         PTCLDY    57  56  96 CALM      30.17R
MARION         PTCLDY    60  56  86 CALM      30.17R
LANCASTER      FOG       55  53  93 CALM      30.17R VSB 1/2
ZANESVILLE     CLEAR     61  55  81 CALM      30.17R
NEW PHILLY     PTCLDY    57  56  96 CALM      30.18R
$$


USA.gov is the U.S. government's official web portal to all federal, state and local government web resources and services.